Weather History for MROC - December, 2012

Change the Weather History Date:

Wednesday, December 26, 2012

  Actual Average Record
Temperature  
Mean Temperature 73 °F -  
Max Temperature 82 °F 80 °F 86 °F (1997)
Min Temperature 64 °F 63 °F 59 °F (2010)
Cooling Degree Days 8    
Growing Degree Days 23 (Base 50)    
Moisture  
Dew Point 65 °F    
Average Humidity 74    
Maximum Humidity 94    
Minimum Humidity 50    
Precipitation  
Precipitation 0.00 in 0.01 in - ()
Sea Level Pressure  
Sea Level Pressure 29.92 in    
Wind  
Wind Speed 5 mph ()    
Max Wind Speed 12 mph    
Max Gust Speed -    
Visibility 8.0 miles    
Events Rain    
Averages and records for this station are not official NWS values.
T = Trace of Precipitation, MM = Missing Value Source: Averaged Metar Reports

Daily Weather History Graph

Daily Weather History Graph

Search for Another Location

Airport or City:

Trip Planner

Search our weather history database for the weather conditions in past years. The results will help you decide how hot, cold, wet, or windy it might be!

Date:

Astronomy

Dec. 26, 2012 Rise Set
Actual Time 5:51 AM CST 5:24 PM CST
Civil Twilight 5:28 AM CST 5:46 PM CST
Nautical Twilight 5:02 AM CST 6:13 PM CST
Astronomical Twilight 4:35 AM CST 6:39 PM CST
Moon 4:12 PM CST (12/26) 4:19 AM CST (12/26)
Length of Visible Light 12h 18m
Length of Day
11h 32m
Waxing Gibbous, 97% of the Moon is Illuminated
Dec 26
Waxing Gibbous
Dec 28
Full
Jan 4
Last Quarter
Jan 11
New
Jan 18
First Quarter

Hourly Weather History & Observations

Time (CST) Temp. Heat Index Dew Point Humidity Pressure Visibility Wind Dir Wind Speed Gust Speed Precip Events Conditions
12:00 AM 67 °F - 62 °F 79% 29.78 in 12 mi East 4.6 mph - -   Mostly Cloudy
12:00 AM 66.2 °F - 62.6 °F 88% 29.97 in - East 4.6 mph - N/A   Clear
1:00 AM 68.0 °F - 62.6 °F 83% 29.95 in - NE 8.1 mph - N/A   Clear
2:00 AM 66.2 °F - 62.6 °F 88% 29.94 in - East 4.6 mph - N/A   Clear
3:00 AM 66 °F - 62 °F 82% 29.78 in 12 mi Calm Calm - -   Clear
3:00 AM 66.2 °F - 62.6 °F 88% 29.93 in - Calm Calm - N/A   Clear
4:00 AM 66.2 °F - 62.6 °F 88% 29.94 in - ENE 4.6 mph - N/A   Clear
5:00 AM 66.2 °F - 60.8 °F 83% 29.95 in - ENE 4.6 mph - N/A   Clear
6:00 AM 66 °F - 61 °F 79% 29.85 in 12 mi NE 2.3 mph - -   Clear
6:00 AM 66.2 °F - 60.8 °F 83% 29.95 in - WSW 2.3 mph - N/A   Clear
7:00 AM 73.4 °F - 62.6 °F 69% 29.97 in - ENE 4.6 mph - N/A   Clear
8:00 AM 75.2 °F - 62.6 °F 65% 29.99 in - East 6.9 mph - N/A   Clear
9:00 AM 78 °F - 64 °F 52% 29.83 in 12 mi SSW 5.8 mph - -   Clear
9:00 AM 78.8 °F - 64.4 °F 61% 30.00 in - SSW 5.8 mph - N/A   Clear
10:00 AM 78.8 °F - 64.4 °F 61% 30.00 in - SW 5.8 mph - N/A   Clear
11:00 AM 80.6 °F 82.3 °F 64.4 °F 58% 29.98 in 6.2 mi SW 9.2 mph - N/A   Scattered Clouds
12:00 PM 81 °F - 65 °F 50% 29.78 in 12 mi SW 8.1 mph - -   Scattered Clouds
12:00 PM 80.6 °F 82.7 °F 66.2 °F 61% 29.95 in 6.2 mi SW 8.1 mph - N/A   Mostly Cloudy
1:00 PM 80.6 °F 82.7 °F 66.2 °F 61% 29.93 in 6.2 mi WSW 11.5 mph - N/A   Mostly Cloudy
2:00 PM 80.6 °F 82.7 °F 66.2 °F 61% 29.92 in 6.2 mi SW 9.2 mph - N/A   Mostly Cloudy
2:40 PM 80.6 °F 83.2 °F 68.0 °F 65% 29.90 in 6.2 mi WSW 11.5 mph - N/A Rain Rain
3:00 PM 79 °F - 67 °F 59% 29.71 in 9 mi WSW 11.5 mph - - Rain Light Rain
3:00 PM 78.8 °F - 68.0 °F 69% 29.90 in 6.2 mi WSW 11.5 mph - N/A Rain Rain
4:00 PM 75.2 °F - 68.0 °F 78% 29.91 in 6.2 mi WSW 5.8 mph - N/A   Mostly Cloudy
5:00 PM 73.4 °F - 68.0 °F 83% 29.91 in 6.2 mi SW 5.8 mph - N/A   Mostly Cloudy
6:00 PM 72 °F - 67 °F 81% 29.78 in 9 mi SSW 2.3 mph - -   Partly Cloudy
6:00 PM 71.6 °F - 68.0 °F 88% 29.93 in 6.2 mi SSW 2.3 mph - N/A   Mostly Cloudy
7:00 PM 71.6 °F - 68.0 °F 88% 29.95 in 6.2 mi Calm Calm - N/A   Scattered Clouds
8:00 PM 69.8 °F - 68.0 °F 94% 29.97 in 6.2 mi Calm Calm - N/A   Scattered Clouds
9:00 PM - - - %  in 12 mi ESE 3.5 mph - -  
9:00 PM 69.8 °F - 64.4 °F 83% 29.98 in 6.2 mi ESE 3.5 mph - N/A   Partly Cloudy
10:00 PM 69.8 °F - 62.6 °F 78% 29.98 in 6.2 mi ENE 2.3 mph - N/A   Partly Cloudy
11:00 PM 69.8 °F - 62.6 °F 78% 29.97 in 6.2 mi ESE 2.3 mph - N/A   Partly Cloudy